Location: Unspecified
(35.7250°N, 0.0000°E)
Time: 03:10:06
(UTC+00:00)

Vanguard 2 - Pass Details

Date: 18 June 2019
Orbit: 553 x 2938 km, 32.9° (Epoch: 23 July)

Event Time Altitude Azimuth Distance (km) Brightness Sun altitude
Rises 15:10:43 0° 280° (W) 5,325 12.5 47.4°
Reaches altitude 10° 15:14:05 10° 273° (W) 4,619 12.5 46.7°
Maximum altitude 15:26:35 41° 210° (SSW) 3,498 11.7 44.2°
Drops below altitude 10° 15:42:24 10° 148° (SSE) 5,757 11.8 41.0°
Sets 15:47:16 0° 141° (SE) 6,715 12.0 40.0°
